User: anonymous   Login
Location: Unspecified
(0.0000°N, 0.0000°E)
Time: 01:41:13
(UTC+00:00)
Language:

Meteor 2-5 - Orbit

View from above orbital plane
View from above orbital plane
View from above satellite
View from above satellite

Ground track
Ground track

The orbit data is extracted from the following two-line orbital elements,

1 11605U 79095A   18022.87123216 -.00000045  00000-0 -34489-4 0  9999
2 11605  81.2113 334.1830 0009851 253.5086 106.5001 14.07057959962158
Epoch (UTC): 22 January 2018 20:54:34
Eccentricity: 0.0009851
inclination: 81.2113°
perigee height: 862 km
apogee height: 876 km
right ascension of ascending node: 334.1830°
argument of perigee: 253.5086°
revolutions per day: 14.07057959
mean anomaly at epoch: 106.5001°
orbit number at epoch: 96215

The dashed part of the orbit path shows where the satellite is in the earth's shadow,  

DLR